Location: Morisset
(33.1080°S, 151.4871°E)
Time: 08:59:29
(UTC+00:00)

Lacrosse 5 - Pass Details

Date: 29 October 2020
Orbit: 716 x 723 km, 57.0° (Epoch: 06 November)

Event Time Altitude Azimuth Distance (km) Brightness Sun altitude
Exits shadow 17:16:08 11° 236° (WSW) 2,184 4.1 -20.0°
Maximum altitude 17:18:11 13° 212° (SSW) 2,031 4.2 -19.6°
Drops below altitude 10° 17:20:33 10° 184° (S) 2,239 4.8 -19.2°
Sets 17:24:22 0° 157° (SSE) 3,165 6.1 -18.5°
